Wetterdaten: Sonntag, 27.03.2016
Datum Zeit Auen-Temp. Temp gefhlt Luftfeuchte Luftdruck Regen Wind Richtung Richtung Sonnenschein Taupunkt Windben
27.03.2016 00:00 1,5 C 0,9 C 87 % 1013,6 hPa 0,0 mm 1,5 km/h (1 Bft) S 180 0 min -0,4 C 5,4 km/h (1 Bft)
27.03.2016 00:05 2,0 C 1,3 C 87 % 1013,6 hPa 0,0 mm 3,6 km/h (1 Bft) S 180 0 min 0,1 C 10,7 km/h (2 Bft)
27.03.2016 00:10 2,4 C 1,6 C 87 % 1013,7 hPa 0,0 mm 6,6 km/h (2 Bft) SW 225 0 min 0,5 C 9,5 km/h (2 Bft)
27.03.2016 00:15 1,2 C 0,9 C 86 % 1013,7 hPa 0,0 mm 4,8 km/h (1 Bft) O-SO 112 0 min -0,9 C 13,7 km/h (3 Bft)
27.03.2016 00:20 1,0 C 0,7 C 85 % 1013,7 hPa 0,0 mm 3,3 km/h (1 Bft) O-NO 67 0 min -1,2 C 0,0 km/h (0 Bft)
27.03.2016 00:25 0,4 C 0,1 C 85 % 1013,7 hPa 0,0 mm 1,2 km/h (1 Bft) NW 315 0 min -1,8 C 0,0 km/h (0 Bft)
27.03.2016 00:30 0,6 C 0,1 C 85 % 1013,8 hPa 0,0 mm 0,0 km/h (0 Bft) O-SO 112 0 min -1,6 C 0,0 km/h (0 Bft)
27.03.2016 00:35 1,4 C 0,7 C 86 % 1013,8 hPa 0,0 mm 0,3 km/h (0 Bft) S-SO 157 0 min -0,7 C 0,0 km/h (0 Bft)
27.03.2016 00:40 0,7 C 0,2 C 86 % 1013,8 hPa 0,0 mm 0,6 km/h (0 Bft) S 180 0 min -1,4 C 0,0 km/h (0 Bft)
27.03.2016 00:45 0,7 C 0,1 C 87 % 1013,8 hPa 0,0 mm 0,3 km/h (0 Bft) O 90 0 min -1,2 C 0,0 km/h (0 Bft)
27.03.2016 00:50 0,7 C 0,1 C 87 % 1013,7 hPa 0,0 mm 0,6 km/h (0 Bft) SO 135 0 min -1,2 C 3,3 km/h (1 Bft)
27.03.2016 00:55 1,0 C 0,5 C 81 % 1013,7 hPa 0,0 mm 0,9 km/h (0 Bft) O-NO 67 0 min -1,9 C 0,0 km/h (0 Bft)
27.03.2016 01:00 0,1 C -0,2 C 86 % 1013,7 hPa 0,0 mm 1,5 km/h (1 Bft) S-SO 157 0 min -2,0 C 0,0 km/h (0 Bft)
27.03.2016 01:05 -0,1 C -0,5 C 86 % 1013,7 hPa 0,0 mm 2,4 km/h (1 Bft) O-SO 112 0 min -2,2 C 0,0 km/h (0 Bft)
27.03.2016 01:10 -0,1 C -0,6 C 86 % 1013,8 hPa 0,0 mm 2,4 km/h (1 Bft) S-SW 202 0 min -2,2 C 4,5 km/h (1 Bft)
27.03.2016 01:13 0,6 C 0,0 C 87 % 1013,8 hPa 0,0 mm 2,7 km/h (1 Bft) SO 135 0 min -1,3 C 6,9 km/h (2 Bft)
27.03.2016 01:16 0,6 C 0,0 C 87 % 1013,8 hPa 0,0 mm 2,7 km/h (1 Bft) SO 135 0 min -1,3 C 6,9 km/h (2 Bft)
27.03.2016 01:19 0,5 C 0,0 C 87 % 1013,8 hPa 0,0 mm 2,4 km/h (1 Bft) O-SO 112 0 min -1,4 C 0,0 km/h (0 Bft)
27.03.2016 01:25 0,7 C 0,0 C 88 % 1013,8 hPa 0,0 mm 3,3 km/h (1 Bft) S-SW 202 0 min -1,1 C 17,0 km/h (3 Bft)
27.03.2016 01:30 0,9 C 0,3 C 88 % 1013,8 hPa 0,0 mm 4,8 km/h (1 Bft) S-SW 202 0 min -0,9 C 8,3 km/h (2 Bft)
27.03.2016 01:35 0,9 C 0,0 C 88 % 1013,8 hPa 0,0 mm 6,9 km/h (2 Bft) O-SO 112 0 min -0,9 C 3,6 km/h (1 Bft)
27.03.2016 01:40 0,5 C 0,1 C 88 % 1013,8 hPa 0,0 mm 4,5 km/h (1 Bft) NW 315 0 min -1,3 C 8,0 km/h (2 Bft)
27.03.2016 01:45 0,0 C -0,4 C 87 % 1013,8 hPa 0,0 mm 1,2 km/h (1 Bft) S-SO 157 0 min -1,9 C 0,0 km/h (0 Bft)
27.03.2016 01:50 0,2 C -0,4 C 87 % 1013,2 hPa 0,0 mm 0,6 km/h (0 Bft) NW 315 0 min -1,7 C 0,0 km/h (0 Bft)
27.03.2016 01:55 -0,1 C -0,6 C 87 % 1013,2 hPa 0,0 mm 0,3 km/h (0 Bft) O 90 0 min -2,0 C 4,2 km/h (1 Bft)
27.03.2016 03:00 -0,3 C -0,7 C 87 % 1013,2 hPa 0,0 mm 1,8 km/h (1 Bft) O-NO 67 0 min -2,2 C 4,8 km/h (1 Bft)
27.03.2016 03:05 0,3 C -0,2 C 82 % 1013,2 hPa 0,0 mm 2,4 km/h (1 Bft) O-SO 112 0 min -2,4 C 3,0 km/h (1 Bft)
27.03.2016 03:10 0,2 C -0,4 C 88 % 1013,1 hPa 0,0 mm 1,5 km/h (1 Bft) O-NO 67 0 min -1,5 C 0,0 km/h (0 Bft)
27.03.2016 03:15 -0,2 C -0,7 C 87 % 1013,1 hPa 0,0 mm 0,3 km/h (0 Bft) S 180 0 min -2,1 C 0,0 km/h (0 Bft)
27.03.2016 03:20 -0,3 C -0,8 C 87 % 1013,1 hPa 0,0 mm 0,3 km/h (0 Bft) W 270 0 min -2,2 C 4,2 km/h (1 Bft)
27.03.2016 03:25 -0,5 C -1,0 C 87 % 1013,1 hPa 0,0 mm 0,9 km/h (0 Bft) W 270 0 min -2,4 C 0,0 km/h (0 Bft)
27.03.2016 03:30 -0,6 C -1,1 C 87 % 1012,9 hPa 0,0 mm 0,6 km/h (0 Bft) O 90 0 min -2,5 C 0,0 km/h (0 Bft)
27.03.2016 03:35 -0,8 C -1,3 C 87 % 1012,9 hPa 0,0 mm 0,0 km/h (0 Bft) O-SO 112 0 min -2,7 C 0,0 km/h (0 Bft)
27.03.2016 03:40 -0,7 C -1,3 C 87 % 1012,9 hPa 0,0 mm 0,0 km/h (0 Bft) W 270 0 min -2,6 C 0,0 km/h (0 Bft)
27.03.2016 03:45 -0,7 C -1,3 C 87 % 1012,9 hPa 0,0 mm 0,0 km/h (0 Bft) SO 135 0 min -2,6 C 0,0 km/h (0 Bft)
27.03.2016 03:50 -0,5 C -1,2 C 87 % 1012,7 hPa 0,0 mm 0,0 km/h (0 Bft) O-NO 67 0 min -2,4 C 0,0 km/h (0 Bft)
27.03.2016 03:55 -0,9 C -1,4 C 87 % 1012,7 hPa 0,0 mm 0,0 km/h (0 Bft) W 270 0 min -2,8 C 0,0 km/h (0 Bft)
27.03.2016 04:00 -1,1 C -1,6 C 87 % 1012,7 hPa 0,0 mm 0,0 km/h (0 Bft) W 270 0 min -3,0 C 0,0 km/h (0 Bft)
27.03.2016 04:05 -1,1 C -1,6 C 87 % 1012,7 hPa 0,0 mm 0,0 km/h (0 Bft) S 180 0 min -3,0 C 0,0 km/h (0 Bft)
27.03.2016 04:10 -1,4 C -1,8 C 87 % 1012,2 hPa 0,0 mm 0,0 km/h (0 Bft) N-NW 337 0 min -3,3 C 0,0 km/h (0 Bft)
27.03.2016 04:15 -1,3 C -1,8 C 87 % 1012,2 hPa 0,0 mm 0,0 km/h (0 Bft) N-NO 22 0 min -3,2 C 0,0 km/h (0 Bft)
27.03.2016 04:20 -1,0 C -1,6 C 87 % 1012,2 hPa 0,0 mm 0,0 km/h (0 Bft) SO 135 0 min -2,9 C 0,0 km/h (0 Bft)
27.03.2016 04:25 -1,2 C -1,7 C 87 % 1012,2 hPa 0,0 mm 0,0 km/h (0 Bft) NO 45 0 min -3,1 C 0,0 km/h (0 Bft)
27.03.2016 04:30 -1,2 C -1,7 C 87 % 1012,2 hPa 0,0 mm 0,0 km/h (0 Bft) W 270 0 min -3,1 C 0,0 km/h (0 Bft)
27.03.2016 04:35 -1,3 C -1,8 C 87 % 1012,2 hPa 0,0 mm 0,0 km/h (0 Bft) O-NO 67 0 min -3,2 C 0,0 km/h (0 Bft)
27.03.2016 04:40 -1,0 C -1,6 C 87 % 1012,2 hPa 0,0 mm 0,0 km/h (0 Bft) O 90 0 min -2,9 C 0,0 km/h (0 Bft)
27.03.2016 04:45 -0,4 C -1,1 C 88 % 1012,2 hPa 0,0 mm 0,0 km/h (0 Bft) NW 315 0 min -2,1 C 0,0 km/h (0 Bft)
27.03.2016 04:50 -0,3 C -0,9 C 82 % 1012,2 hPa 0,0 mm 0,0 km/h (0 Bft) O 90 0 min -3,0 C 0,0 km/h (0 Bft)
27.03.2016 04:55 -0,7 C -1,2 C 88 % 1012,2 hPa 0,0 mm 0,0 km/h (0 Bft) NO 45 0 min -2,4 C 0,0 km/h (0 Bft)
27.03.2016 05:00 -0,5 C -1,1 C 88 % 1012,2 hPa 0,0 mm 0,0 km/h (0 Bft) O-NO 67 0 min -2,2 C 0,0 km/h (0 Bft)
27.03.2016 05:05 -0,6 C -1,2 C 88 % 1012,2 hPa 0,0 mm 0,0 km/h (0 Bft) W-SW 247 0 min -2,3 C 0,0 km/h (0 Bft)
27.03.2016 05:10 -0,7 C -1,3 C 87 % 1012,1 hPa 0,0 mm 0,0 km/h (0 Bft) S 180 0 min -2,6 C 0,0 km/h (0 Bft)
27.03.2016 05:15 -0,2 C -0,8 C 82 % 1012,1 hPa 0,0 mm 0,0 km/h (0 Bft) O-NO 67 0 min -2,9 C 0,0 km/h (0 Bft)
27.03.2016 05:17 -0,2 C -0,8 C 82 % 1012,1 hPa 0,0 mm 0,0 km/h (0 Bft) O-NO 67 0 min -2,9 C 0,0 km/h (0 Bft)
27.03.2016 05:20 -0,3 C -0,9 C 87 % 1012,1 hPa 0,0 mm 0,3 km/h (0 Bft) N-NO 22 0 min -2,2 C 0,0 km/h (0 Bft)
27.03.2016 05:25 0,1 C -0,5 C 88 % 1012,1 hPa 0,0 mm 0,3 km/h (0 Bft) N 360 0 min -1,6 C 0,0 km/h (0 Bft)
27.03.2016 05:30 0,1 C -0,4 C 87 % 1011,6 hPa 0,0 mm 0,3 km/h (0 Bft) SO 135 0 min -1,8 C 0,0 km/h (0 Bft)
27.03.2016 05:35 0,4 C -0,1 C 87 % 1011,6 hPa 0,0 mm 0,6 km/h (0 Bft) N 360 0 min -1,5 C 0,0 km/h (0 Bft)
27.03.2016 05:40 0,5 C 0,0 C 87 % 1011,6 hPa 0,0 mm 0,6 km/h (0 Bft) O-NO 67 0 min -1,4 C 0,0 km/h (0 Bft)
27.03.2016 05:45 1,2 C 0,5 C 87 % 1011,6 hPa 0,0 mm 0,0 km/h (0 Bft) O-NO 67 0 min -0,7 C 0,0 km/h (0 Bft)
27.03.2016 05:50 1,1 C 0,5 C 86 % 1011,5 hPa 0,0 mm 0,0 km/h (0 Bft) O-SO 112 0 min -1,0 C 0,0 km/h (0 Bft)
27.03.2016 05:55 1,3 C 0,6 C 86 % 1011,5 hPa 0,0 mm 0,3 km/h (0 Bft) SO 135 0 min -0,8 C 0,0 km/h (0 Bft)
27.03.2016 06:00 1,5 C 0,8 C 84 % 1011,5 hPa 0,0 mm 0,3 km/h (0 Bft) NW 315 0 min -0,9 C 0,0 km/h (0 Bft)
27.03.2016 06:05 1,5 C 0,8 C 82 % 1011,5 hPa 0,0 mm 1,5 km/h (1 Bft) NW 315 0 min -1,2 C 8,6 km/h (2 Bft)
27.03.2016 06:10 1,5 C 1,0 C 81 % 1011,3 hPa 0,0 mm 3,3 km/h (1 Bft) N-NW 337 0 min -1,4 C 3,3 km/h (1 Bft)
27.03.2016 06:15 1,8 C 1,2 C 79 % 1011,3 hPa 0,0 mm 3,3 km/h (1 Bft) O-NO 67 0 min -1,4 C 0,0 km/h (0 Bft)
27.03.2016 06:20 1,9 C 1,3 C 79 % 1011,3 hPa 0,0 mm 1,8 km/h (1 Bft) NO 45 0 min -1,3 C 4,5 km/h (1 Bft)
27.03.2016 06:25 1,8 C 1,3 C 77 % 1011,3 hPa 0,0 mm 1,2 km/h (1 Bft) W 270 0 min -1,8 C 0,0 km/h (0 Bft)
27.03.2016 06:30 1,8 C 1,3 C 77 % 1011,3 hPa 0,0 mm 0,9 km/h (0 Bft) N-NO 22 0 min -1,8 C 0,0 km/h (0 Bft)
27.03.2016 06:35 1,3 C 0,8 C 76 % 1011,3 hPa 0,0 mm 0,3 km/h (0 Bft) W-SW 247 0 min -2,5 C 0,0 km/h (0 Bft)
27.03.2016 06:40 1,0 C 0,6 C 76 % 1011,3 hPa 0,0 mm 0,6 km/h (0 Bft) N-NO 22 0 min -2,7 C 0,0 km/h (0 Bft)
27.03.2016 06:45 1,2 C 0,7 C 75 % 1011,3 hPa 0,0 mm 0,3 km/h (0 Bft) O-NO 67 0 min -2,7 C 0,0 km/h (0 Bft)
27.03.2016 06:50 1,9 C 1,2 C 75 % 1011,0 hPa 0,0 mm 0,3 km/h (0 Bft) O-SO 112 0 min -2,1 C 0,0 km/h (0 Bft)
27.03.2016 06:55 1,5 C 1,0 C 75 % 1011,0 hPa 0,0 mm 0,3 km/h (0 Bft) NO 45 0 min -2,4 C 0,0 km/h (0 Bft)
27.03.2016 07:00 1,6 C 1,2 C 75 % 1011,0 hPa 0,0 mm 0,3 km/h (0 Bft) O-NO 67 0 min -2,3 C 0,0 km/h (0 Bft)
27.03.2016 07:05 2,1 C 1,6 C 74 % 1011,0 hPa 0,0 mm 0,0 km/h (0 Bft) O-SO 112 0 min -2,0 C 0,0 km/h (0 Bft)
27.03.2016 07:10 2,0 C 1,7 C 74 % 1011,1 hPa 0,0 mm 0,6 km/h (0 Bft) NO 45 0 min -2,1 C 3,0 km/h (1 Bft)
27.03.2016 07:15 1,8 C 1,6 C 73 % 1011,1 hPa 0,0 mm 0,6 km/h (0 Bft) O-NO 67 0 min -2,5 C 0,0 km/h (0 Bft)
27.03.2016 07:20 1,8 C 1,6 C 73 % 1011,1 hPa 0,0 mm 0,3 km/h (0 Bft) S 180 0 min -2,5 C 0,0 km/h (0 Bft)
27.03.2016 07:25 2,1 C 1,9 C 73 % 1011,1 hPa 0,0 mm 0,3 km/h (0 Bft) NO 45 0 min -2,2 C 0,0 km/h (0 Bft)
27.03.2016 07:30 2,2 C 2,0 C 73 % 1010,8 hPa 0,0 mm 0,3 km/h (0 Bft) O-NO 67 0 min -2,1 C 0,0 km/h (0 Bft)
27.03.2016 07:35 1,8 C 1,9 C 72 % 1010,8 hPa 0,0 mm 0,0 km/h (0 Bft) NW 315 0 min -2,7 C 0,0 km/h (0 Bft)
27.03.2016 07:40 2,3 C 2,2 C 72 % 1010,8 hPa 0,0 mm 0,6 km/h (0 Bft) N-NO 22 0 min -2,2 C 0,0 km/h (0 Bft)
27.03.2016 07:45 2,7 C 2,7 C 71 % 1010,8 hPa 0,0 mm 0,6 km/h (0 Bft) S 180 0 min -2,0 C 0,0 km/h (0 Bft)
27.03.2016 07:50 2,8 C 2,8 C 69 % 1010,9 hPa 0,0 mm 0,3 km/h (0 Bft) NW 315 0 min -2,3 C 0,0 km/h (0 Bft)
27.03.2016 07:55 2,8 C 3,1 C 69 % 1010,9 hPa 0,0 mm 0,3 km/h (0 Bft) NW 315 0 min -2,3 C 0,0 km/h (0 Bft)
27.03.2016 08:00 3,0 C 3,5 C 69 % 1010,9 hPa 0,0 mm 0,0 km/h (0 Bft) SW 225 0 min -2,1 C 0,0 km/h (0 Bft)
27.03.2016 08:05 3,0 C 3,8 C 69 % 1010,9 hPa 0,0 mm 0,0 km/h (0 Bft) O 90 0 min -2,1 C 0,0 km/h (0 Bft)
27.03.2016 08:10 3,4 C 5,2 C 69 % 1010,8 hPa 0,0 mm 0,0 km/h (0 Bft) NO 45 0 min -1,7 C 0,0 km/h (0 Bft)
27.03.2016 08:15 3,7 C 9,3 C 68 % 1010,8 hPa 0,0 mm 0,3 km/h (0 Bft) W-NW 292 5 min -1,6 C 0,0 km/h (0 Bft)
27.03.2016 08:18 3,7 C 9,3 C 68 % 1010,8 hPa 0,0 mm 0,3 km/h (0 Bft) W-NW 292 3 min -1,6 C 0,0 km/h (0 Bft)
27.03.2016 08:20 4,2 C 11,5 C 67 % 1010,8 hPa 0,0 mm 0,3 km/h (0 Bft) O-NO 67 2 min -1,4 C 3,6 km/h (1 Bft)
27.03.2016 08:25 4,6 C 13,4 C 66 % 1010,8 hPa 0,0 mm 0,3 km/h (0 Bft) S-SO 157 5 min -1,2 C 0,0 km/h (0 Bft)
27.03.2016 08:30 5,0 C 13,9 C 64 % 1010,6 hPa 0,0 mm 0,3 km/h (0 Bft) SO 135 5 min -1,2 C 0,0 km/h (0 Bft)
27.03.2016 08:35 5,3 C 14,5 C 63 % 1010,6 hPa 0,0 mm 0,0 km/h (0 Bft) SO 135 5 min -1,2 C 0,0 km/h (0 Bft)
27.03.2016 08:40 5,4 C 14,0 C 63 % 1010,6 hPa 0,0 mm 0,0 km/h (0 Bft) SO 135 5 min -1,1 C 0,0 km/h (0 Bft)
27.03.2016 08:45 6,0 C 14,2 C 60 % 1010,6 hPa 0,0 mm 0,0 km/h (0 Bft) O-NO 67 5 min -1,2 C 0,0 km/h (0 Bft)
27.03.2016 08:50 6,8 C 15,4 C 60 % 1010,5 hPa 0,0 mm 0,0 km/h (0 Bft) N-NW 337 5 min -0,4 C 0,0 km/h (0 Bft)
27.03.2016 08:55 7,8 C 16,8 C 59 % 1010,5 hPa 0,0 mm 0,0 km/h (0 Bft) O-NO 67 5 min 0,3 C 0,0 km/h (0 Bft)
27.03.2016 09:00 8,4 C 17,5 C 59 % 1010,5 hPa 0,0 mm 0,0 km/h (0 Bft) N-NO 22 5 min 0,9 C 0,0 km/h (0 Bft)
27.03.2016 09:05 8,9 C 17,3 C 57 % 1010,5 hPa 0,0 mm 0,3 km/h (0 Bft) SO 135 5 min 0,9 C 0,0 km/h (0 Bft)
27.03.2016 09:10 9,3 C 17,5 C 57 % 1010,7 hPa 0,0 mm 0,3 km/h (0 Bft) O-NO 67 5 min 1,2 C 0,0 km/h (0 Bft)
27.03.2016 09:15 9,7 C 17,3 C 56 % 1010,7 hPa 0,0 mm 0,0 km/h (0 Bft) SO 135 5 min 1,4 C 0,0 km/h (0 Bft)
27.03.2016 09:20 9,8 C 17,1 C 56 % 1010,7 hPa 0,0 mm 0,0 km/h (0 Bft) N-NW 337 5 min 1,4 C 0,0 km/h (0 Bft)
27.03.2016 09:25 10,0 C 16,4 C 55 % 1010,7 hPa 0,0 mm 0,0 km/h (0 Bft) SW 225 5 min 1,4 C 0,0 km/h (0 Bft)
27.03.2016 09:30 10,1 C 16,3 C 54 % 1010,8 hPa 0,0 mm 0,0 km/h (0 Bft) SO 135 5 min 1,2 C 0,0 km/h (0 Bft)
27.03.2016 09:35 10,4 C 16,4 C 54 % 1010,8 hPa 0,0 mm 0,0 km/h (0 Bft) O-NO 67 5 min 1,5 C 0,0 km/h (0 Bft)
27.03.2016 09:40 10,6 C 16,7 C 54 % 1010,8 hPa 0,0 mm 0,0 km/h (0 Bft) N-NO 22 5 min 1,7 C 0,0 km/h (0 Bft)
27.03.2016 09:45 10,9 C 16,5 C 54 % 1010,8 hPa 0,0 mm 0,0 km/h (0 Bft) O-SO 112 5 min 2,0 C 0,0 km/h (0 Bft)
27.03.2016 09:50 10,8 C 16,2 C 52 % 1011,2 hPa 0,0 mm 0,0 km/h (0 Bft) W-SW 247 5 min 1,3 C 0,0 km/h (0 Bft)
27.03.2016 09:55 11,1 C 15,6 C 52 % 1011,2 hPa 0,0 mm 1,8 km/h (1 Bft) N-NO 22 5 min 1,6 C 3,0 km/h (1 Bft)
27.03.2016 10:00 11,3 C 15,9 C 50 % 1011,2 hPa 0,0 mm 3,0 km/h (1 Bft) S 180 5 min 1,3 C 4,2 km/h (1 Bft)
27.03.2016 10:05 11,5 C 16,1 C 51 % 1011,2 hPa 0,0 mm 1,5 km/h (1 Bft) N-NO 22 5 min 1,7 C 0,0 km/h (0 Bft)
27.03.2016 10:10 11,7 C 16,5 C 51 % 1011,6 hPa 0,0 mm 0,9 km/h (0 Bft) O-SO 112 5 min 1,9 C 0,0 km/h (0 Bft)
27.03.2016 10:15 11,9 C 17,0 C 51 % 1011,6 hPa 0,0 mm 0,3 km/h (0 Bft) NW 315 5 min 2,1 C 0,0 km/h (0 Bft)
27.03.2016 10:20 12,2 C 17,3 C 49 % 1011,6 hPa 0,0 mm 0,3 km/h (0 Bft) N-NW 337 5 min 1,8 C 0,0 km/h (0 Bft)
27.03.2016 10:25 12,3 C 17,4 C 48 % 1011,6 hPa 0,0 mm 1,2 km/h (1 Bft) SO 135 5 min 1,6 C 0,0 km/h (0 Bft)
27.03.2016 10:30 12,5 C 17,1 C 48 % 1011,6 hPa 0,0 mm 3,0 km/h (1 Bft) NW 315 5 min 1,8 C 7,2 km/h (2 Bft)
27.03.2016 10:35 13,0 C 17,9 C 46 % 1011,6 hPa 0,0 mm 2,1 km/h (1 Bft) W 270 5 min 1,7 C 0,0 km/h (0 Bft)
27.03.2016 10:40 13,3 C 18,7 C 47 % 1011,6 hPa 0,0 mm 1,8 km/h (1 Bft) N-NO 22 5 min 2,2 C 6,9 km/h (2 Bft)
27.03.2016 10:45 13,4 C 18,8 C 47 % 1011,6 hPa 0,0 mm 1,8 km/h (1 Bft) O-NO 67 5 min 2,3 C 5,4 km/h (1 Bft)
27.03.2016 10:50 13,7 C 18,7 C 46 % 1012,1 hPa 0,0 mm 1,2 km/h (1 Bft) SW 225 5 min 2,3 C 0,0 km/h (0 Bft)
27.03.2016 10:55 13,9 C 18,7 C 46 % 1012,1 hPa 0,0 mm 2,7 km/h (1 Bft) N-NW 337 5 min 2,5 C 0,0 km/h (0 Bft)
27.03.2016 11:00 14,4 C 19,0 C 46 % 1012,1 hPa 0,0 mm 2,1 km/h (1 Bft) O 90 5 min 2,9 C 0,0 km/h (0 Bft)
27.03.2016 11:05 14,6 C 19,3 C 45 % 1012,1 hPa 0,0 mm 0,6 km/h (0 Bft) NO 45 5 min 2,8 C 0,0 km/h (0 Bft)
27.03.2016 11:10 14,4 C 18,4 C 43 % 1013,6 hPa 0,0 mm 7,7 km/h (2 Bft) W 270 5 min 2,0 C 48,6 km/h (6 Bft)
27.03.2016 11:15 13,0 C 16,5 C 42 % 1013,6 hPa 0,0 mm 20,3 km/h (4 Bft) W-NW 292 5 min 0,4 C 30,7 km/h (5 Bft)
27.03.2016 11:18 12,4 C 14,6 C 43 % 1013,6 hPa 0,0 mm 23,8 km/h (4 Bft) NW 315 0 min 0,2 C 39,0 km/h (6 Bft)
27.03.2016 11:19 12,4 C 13,9 C 43 % 1013,6 hPa 0,0 mm 23,8 km/h (4 Bft) NW 315 0 min 0,2 C 39,0 km/h (6 Bft)
27.03.2016 11:20 12,4 C 13,9 C 43 % 1013,6 hPa 0,0 mm 23,8 km/h (4 Bft) NW 315 0 min 0,2 C 39,0 km/h (6 Bft)
27.03.2016 11:25 11,9 C 13,6 C 43 % 1013,6 hPa 0,0 mm 25,3 km/h (4 Bft) W 270 0 min -0,3 C 21,2 km/h (4 Bft)
27.03.2016 11:30 11,9 C 12,9 C 44 % 1014,1 hPa 0,0 mm 24,1 km/h (4 Bft) NW 315 0 min 0,0 C 16,4 km/h (3 Bft)
27.03.2016 11:35 11,6 C 13,5 C 47 % 1014,1 hPa 0,0 mm 23,8 km/h (4 Bft) W-SW 247 0 min 0,7 C 49,8 km/h (6 Bft)
27.03.2016 11:40 11,3 C 13,1 C 48 % 1014,1 hPa 0,0 mm 26,8 km/h (4 Bft) SW 225 0 min 0,7 C 34,3 km/h (5 Bft)
27.03.2016 11:45 11,0 C 12,5 C 50 % 1014,1 hPa 0,0 mm 28,0 km/h (4 Bft) W 270 0 min 1,0 C 56,3 km/h (7 Bft)
27.03.2016 11:50 10,7 C 12,0 C 52 % 1014,5 hPa 0,0 mm 25,9 km/h (4 Bft) NW 315 0 min 1,3 C 20,6 km/h (4 Bft)
27.03.2016 11:55 10,6 C 11,5 C 53 % 1014,5 hPa 0,0 mm 28,9 km/h (5 Bft) W-NW 292 0 min 1,4 C 69,1 km/h (8 Bft)
27.03.2016 12:00 10,6 C 11,1 C 54 % 1014,5 hPa 0,0 mm 28,3 km/h (4 Bft) NW 315 0 min 1,7 C 31,6 km/h (5 Bft)
27.03.2016 12:05 10,7 C 11,5 C 54 % 1014,5 hPa 0,0 mm 24,7 km/h (4 Bft) NW 315 0 min 1,8 C 26,2 km/h (4 Bft)
27.03.2016 12:10 11,1 C 12,3 C 55 % 1014,6 hPa 0,0 mm 16,7 km/h (3 Bft) W-SW 247 0 min 2,4 C 15,8 km/h (3 Bft)
27.03.2016 12:15 11,4 C 14,0 C 55 % 1014,6 hPa 0,0 mm 14,0 km/h (3 Bft) W 270 0 min 2,7 C 23,5 km/h (4 Bft)
27.03.2016 12:20 11,5 C 14,2 C 56 % 1014,6 hPa 0,0 mm 14,3 km/h (3 Bft) W-SW 247 0 min 3,0 C 11,3 km/h (2 Bft)
27.03.2016 12:25 11,6 C 14,5 C 56 % 1014,6 hPa 0,0 mm 17,3 km/h (3 Bft) W 270 0 min 3,1 C 26,5 km/h (4 Bft)
27.03.2016 12:30 11,9 C 14,7 C 56 % 1014,8 hPa 0,0 mm 18,5 km/h (3 Bft) NW 315 0 min 3,4 C 24,7 km/h (4 Bft)
27.03.2016 12:35 11,7 C 14,5 C 56 % 1014,8 hPa 0,0 mm 22,1 km/h (4 Bft) W 270 0 min 3,2 C 22,7 km/h (4 Bft)
27.03.2016 12:40 11,3 C 13,6 C 56 % 1014,8 hPa 0,0 mm 25,3 km/h (4 Bft) W-NW 292 0 min 2,8 C 47,1 km/h (6 Bft)
27.03.2016 12:46 10,6 C 12,0 C 56 % 1014,8 hPa 0,0 mm 28,0 km/h (4 Bft) W-NW 292 0 min 2,2 C 25,6 km/h (4 Bft)
27.03.2016 12:50 10,7 C 11,2 C 57 % 1015,1 hPa 0,0 mm 25,3 km/h (4 Bft) NW 315 0 min 2,5 C 29,2 km/h (5 Bft)
27.03.2016 12:55 10,6 C 11,3 C 57 % 1015,1 hPa 0,0 mm 22,1 km/h (4 Bft) W-SW 247 0 min 2,4 C 28,3 km/h (4 Bft)
27.03.2016 13:00 10,6 C 11,4 C 57 % 1015,1 hPa 0,0 mm 22,9 km/h (4 Bft) W-SW 247 0 min 2,4 C 32,5 km/h (5 Bft)
27.03.2016 13:05 10,4 C 11,0 C 57 % 1015,1 hPa 0,0 mm 24,1 km/h (4 Bft) W 270 0 min 2,3 C 35,8 km/h (5 Bft)
27.03.2016 13:10 10,2 C 10,6 C 57 % 1015,0 hPa 0,0 mm 24,1 km/h (4 Bft) W-NW 292 0 min 2,1 C 15,2 km/h (3 Bft)
27.03.2016 13:15 10,2 C 10,5 C 58 % 1015,0 hPa 0,0 mm 21,8 km/h (4 Bft) W-SW 247 0 min 2,3 C 10,4 km/h (2 Bft)
27.03.2016 13:20 10,3 C 10,7 C 58 % 1015,0 hPa 0,0 mm 20,3 km/h (4 Bft) NW 315 0 min 2,4 C 20,0 km/h (4 Bft)
27.03.2016 13:25 10,9 C 11,8 C 58 % 1015,0 hPa 0,0 mm 18,2 km/h (3 Bft) W 270 0 min 3,0 C 18,5 km/h (3 Bft)
27.03.2016 13:30 11,3 C 12,4 C 57 % 1014,8 hPa 0,0 mm 19,4 km/h (3 Bft) NW 315 0 min 3,1 C 28,0 km/h (4 Bft)
27.03.2016 13:35 11,3 C 12,5 C 57 % 1014,8 hPa 0,0 mm 22,4 km/h (4 Bft) W 270 0 min 3,1 C 34,3 km/h (5 Bft)
27.03.2016 13:40 11,5 C 13,1 C 57 % 1014,8 hPa 0,0 mm 22,9 km/h (4 Bft) W-SW 247 0 min 3,3 C 30,7 km/h (5 Bft)
27.03.2016 13:45 11,8 C 13,8 C 56 % 1014,8 hPa 0,0 mm 22,4 km/h (4 Bft) N-NW 337 0 min 3,3 C 39,6 km/h (6 Bft)
27.03.2016 13:50 11,8 C 14,0 C 56 % 1014,8 hPa 0,0 mm 22,1 km/h (4 Bft) NW 315 0 min 3,3 C 27,4 km/h (4 Bft)
27.03.2016 13:55 11,3 C 13,3 C 56 % 1014,8 hPa 0,0 mm 24,1 km/h (4 Bft) W-NW 292 0 min 2,8 C 25,6 km/h (4 Bft)
27.03.2016 14:00 11,7 C 13,1 C 57 % 1014,8 hPa 0,0 mm 22,7 km/h (4 Bft) W 270 0 min 3,5 C 17,9 km/h (3 Bft)
27.03.2016 14:05 12,5 C 14,4 C 56 % 1014,8 hPa 0,0 mm 18,5 km/h (3 Bft) NW 315 0 min 4,0 C 31,6 km/h (5 Bft)
27.03.2016 14:10 12,8 C 15,5 C 56 % 1014,8 hPa 0,0 mm 19,7 km/h (3 Bft) W-NW 292 0 min 4,2 C 27,7 km/h (4 Bft)
27.03.2016 14:15 12,9 C 16,0 C 55 % 1014,8 hPa 0,0 mm 18,8 km/h (3 Bft) W-NW 292 0 min 4,1 C 25,0 km/h (4 Bft)
27.03.2016 14:18 12,5 C 15,7 C 55 % 1014,8 hPa 0,0 mm 19,4 km/h (3 Bft) W-NW 292 3 min 3,7 C 24,1 km/h (4 Bft)
27.03.2016 14:20 12,5 C 15,4 C 55 % 1014,8 hPa 0,0 mm 19,4 km/h (3 Bft) W-NW 292 2 min 3,7 C 24,1 km/h (4 Bft)
27.03.2016 14:25 12,7 C 15,6 C 55 % 1014,8 hPa 0,0 mm 17,3 km/h (3 Bft) W 270 0 min 3,9 C 14,0 km/h (3 Bft)
27.03.2016 14:30 12,8 C 15,9 C 55 % 1014,9 hPa 0,0 mm 17,0 km/h (3 Bft) SW 225 0 min 4,0 C 20,3 km/h (4 Bft)
27.03.2016 14:35 13,0 C 16,6 C 53 % 1014,9 hPa 0,0 mm 18,2 km/h (3 Bft) W 270 0 min 3,6 C 25,9 km/h (4 Bft)
27.03.2016 14:40 12,7 C 16,5 C 55 % 1014,9 hPa 0,0 mm 19,1 km/h (3 Bft) NW 315 5 min 3,9 C 34,6 km/h (5 Bft)
27.03.2016 14:45 11,6 C 14,7 C 55 % 1014,9 hPa 0,0 mm 18,8 km/h (3 Bft) W-NW 292 5 min 2,9 C 21,5 km/h (4 Bft)
27.03.2016 14:50 11,3 C 13,1 C 56 % 1014,8 hPa 0,0 mm 18,2 km/h (3 Bft) W-SW 247 0 min 2,8 C 17,9 km/h (3 Bft)
27.03.2016 14:55 11,3 C 12,4 C 56 % 1014,8 hPa 0,0 mm 16,1 km/h (3 Bft) W 270 0 min 2,8 C 19,1 km/h (3 Bft)
27.03.2016 15:00 11,0 C 11,9 C 56 % 1014,8 hPa 0,0 mm 16,4 km/h (3 Bft) W-NW 292 0 min 2,6 C 24,7 km/h (4 Bft)
27.03.2016 15:05 10,9 C 11,4 C 56 % 1014,8 hPa 0,0 mm 18,2 km/h (3 Bft) W 270 0 min 2,5 C 38,4 km/h (5 Bft)
27.03.2016 15:10 10,7 C 11,1 C 56 % 1014,6 hPa 0,0 mm 21,5 km/h (4 Bft) W-NW 292 0 min 2,3 C 38,1 km/h (5 Bft)
27.03.2016 15:15 10,7 C 10,9 C 56 % 1014,6 hPa 0,0 mm 22,4 km/h (4 Bft) SW 225 0 min 2,3 C 14,6 km/h (3 Bft)
27.03.2016 15:20 10,8 C 11,5 C 56 % 1014,6 hPa 0,0 mm 19,7 km/h (3 Bft) W 270 0 min 2,4 C 27,7 km/h (4 Bft)
27.03.2016 15:25 10,8 C 11,7 C 56 % 1014,6 hPa 0,0 mm 18,5 km/h (3 Bft) W 270 0 min 2,4 C 27,7 km/h (4 Bft)
27.03.2016 15:30 10,6 C 11,6 C 56 % 1014,1 hPa 0,0 mm 18,8 km/h (3 Bft) W 270 0 min 2,2 C 23,8 km/h (4 Bft)
27.03.2016 15:35 10,5 C 11,2 C 56 % 1014,1 hPa 0,0 mm 17,0 km/h (3 Bft) NW 315 0 min 2,1 C 18,8 km/h (3 Bft)
27.03.2016 15:40 10,4 C 10,9 C 56 % 1014,1 hPa 0,0 mm 13,7 km/h (3 Bft) W 270 0 min 2,0 C 14,9 km/h (3 Bft)
27.03.2016 15:45 10,5 C 11,6 C 56 % 1014,1 hPa 0,0 mm 10,1 km/h (2 Bft) W-SW 247 0 min 2,1 C 16,1 km/h (3 Bft)
27.03.2016 15:50 10,4 C 11,3 C 57 % 1013,9 hPa 0,0 mm 10,7 km/h (2 Bft) W 270 0 min 2,3 C 8,0 km/h (2 Bft)
27.03.2016 15:55 10,4 C 11,1 C 57 % 1013,9 hPa 0,0 mm 10,1 km/h (2 Bft) W 270 0 min 2,3 C 11,3 km/h (2 Bft)
27.03.2016 16:00 10,3 C 11,1 C 57 % 1013,9 hPa 0,0 mm 9,8 km/h (2 Bft) W 270 0 min 2,2 C 16,7 km/h (3 Bft)
27.03.2016 16:05 10,0 C 10,7 C 57 % 1013,9 hPa 0,0 mm 10,1 km/h (2 Bft) S 180 0 min 1,9 C 10,7 km/h (2 Bft)
27.03.2016 16:10 10,0 C 10,8 C 57 % 1013,7 hPa 0,0 mm 9,5 km/h (2 Bft) W-SW 247 0 min 1,9 C 15,2 km/h (3 Bft)
27.03.2016 16:15 9,8 C 10,6 C 58 % 1013,7 hPa 0,0 mm 10,1 km/h (2 Bft) W-SW 247 0 min 1,9 C 8,0 km/h (2 Bft)
27.03.2016 16:20 9,9 C 10,7 C 58 % 1013,7 hPa 0,0 mm 10,4 km/h (2 Bft) S 180 0 min 2,0 C 11,0 km/h (2 Bft)
27.03.2016 16:25 9,9 C 10,9 C 58 % 1013,7 hPa 0,0 mm 8,6 km/h (2 Bft) W-SW 247 0 min 2,0 C 8,9 km/h (2 Bft)
27.03.2016 16:30 9,9 C 11,0 C 58 % 1013,6 hPa 0,0 mm 7,7 km/h (2 Bft) N-NW 337 0 min 2,0 C 6,3 km/h (2 Bft)
27.03.2016 16:35 9,9 C 11,1 C 58 % 1013,6 hPa 0,0 mm 7,2 km/h (2 Bft) SW 225 0 min 2,0 C 12,8 km/h (3 Bft)
27.03.2016 16:40 9,9 C 11,2 C 58 % 1013,6 hPa 0,0 mm 8,0 km/h (2 Bft) NW 315 0 min 2,0 C 6,6 km/h (2 Bft)
27.03.2016 16:45 9,9 C 11,1 C 58 % 1013,6 hPa 0,0 mm 9,2 km/h (2 Bft) NW 315 0 min 2,0 C 7,2 km/h (2 Bft)
27.03.2016 16:50 9,9 C 11,1 C 59 % 1013,4 hPa 0,0 mm 9,2 km/h (2 Bft) SW 225 0 min 2,3 C 9,8 km/h (2 Bft)
27.03.2016 16:55 9,9 C 11,2 C 59 % 1013,4 hPa 0,0 mm 8,0 km/h (2 Bft) W 270 0 min 2,3 C 11,9 km/h (2 Bft)
27.03.2016 17:00 9,9 C 11,2 C 59 % 1013,4 hPa 0,0 mm 8,3 km/h (2 Bft) S-SW 202 0 min 2,3 C 15,5 km/h (3 Bft)
27.03.2016 17:05 9,8 C 10,9 C 59 % 1013,4 hPa 0,0 mm 8,6 km/h (2 Bft) W-SW 247 0 min 2,2 C 9,5 km/h (2 Bft)
27.03.2016 17:10 9,7 C 10,7 C 59 % 1013,4 hPa 0,0 mm 8,9 km/h (2 Bft) W 270 0 min 2,1 C 7,5 km/h (2 Bft)
27.03.2016 17:15 9,6 C 10,4 C 59 % 1013,4 hPa 0,0 mm 8,6 km/h (2 Bft) SW 225 0 min 2,0 C 8,0 km/h (2 Bft)
27.03.2016 17:18 9,5 C 10,3 C 59 % 1013,4 hPa 0,0 mm 7,2 km/h (2 Bft) W-SW 247 0 min 1,9 C 11,0 km/h (2 Bft)
27.03.2016 17:21 9,5 C 10,3 C 59 % 1013,4 hPa 0,0 mm 7,2 km/h (2 Bft) W-SW 247 0 min 1,9 C 11,0 km/h (2 Bft)
27.03.2016 17:25 9,3 C 9,9 C 59 % 1013,4 hPa 0,0 mm 7,2 km/h (2 Bft) N 360 0 min 1,7 C 12,8 km/h (3 Bft)
27.03.2016 17:30 9,3 C 9,8 C 59 % 1013,3 hPa 0,0 mm 7,7 km/h (2 Bft) W-SW 247 0 min 1,7 C 9,8 km/h (2 Bft)
27.03.2016 17:35 9,1 C 9,4 C 59 % 1013,3 hPa 0,0 mm 7,5 km/h (2 Bft) SW 225 0 min 1,5 C 4,8 km/h (1 Bft)
27.03.2016 17:40 9,0 C 9,3 C 59 % 1013,3 hPa 0,0 mm 6,6 km/h (2 Bft) W 270 0 min 1,4 C 5,4 km/h (1 Bft)
27.03.2016 17:45 9,0 C 9,3 C 59 % 1013,3 hPa 0,0 mm 6,3 km/h (2 Bft) W-SW 247 0 min 1,4 C 11,9 km/h (2 Bft)
27.03.2016 17:50 8,9 C 9,3 C 59 % 1013,1 hPa 0,0 mm 6,0 km/h (2 Bft) W-NW 292 0 min 1,3 C 3,6 km/h (1 Bft)
27.03.2016 17:55 8,9 C 9,4 C 59 % 1013,1 hPa 0,0 mm 6,0 km/h (2 Bft) W-NW 292 0 min 1,3 C 11,0 km/h (2 Bft)
27.03.2016 18:00 8,9 C 9,4 C 59 % 1013,1 hPa 0,0 mm 6,0 km/h (2 Bft) W-NW 292 0 min 1,3 C 8,6 km/h (2 Bft)
27.03.2016 18:05 8,9 C 9,4 C 59 % 1013,1 hPa 0,0 mm 5,7 km/h (1 Bft) NW 315 0 min 1,3 C 4,2 km/h (1 Bft)
27.03.2016 18:10 8,9 C 9,3 C 59 % 1013,1 hPa 0,0 mm 5,7 km/h (1 Bft) NO 45 0 min 1,3 C 6,9 km/h (2 Bft)
27.03.2016 18:15 8,7 C 9,2 C 59 % 1013,1 hPa 0,0 mm 5,7 km/h (1 Bft) W-SW 247 0 min 1,1 C 5,1 km/h (1 Bft)
27.03.2016 18:20 8,6 C 8,9 C 59 % 1013,1 hPa 0,0 mm 6,6 km/h (2 Bft) NW 315 0 min 1,0 C 7,2 km/h (2 Bft)
27.03.2016 18:25 8,4 C 8,6 C 59 % 1013,1 hPa 0,0 mm 6,9 km/h (2 Bft) NW 315 0 min 0,9 C 4,8 km/h (1 Bft)
27.03.2016 18:30 8,4 C 8,4 C 59 % 1013,2 hPa 0,0 mm 7,2 km/h (2 Bft) W 270 0 min 0,9 C 6,9 km/h (2 Bft)
27.03.2016 18:35 8,2 C 8,2 C 59 % 1013,2 hPa 0,0 mm 6,9 km/h (2 Bft) S 180 0 min 0,7 C 8,3 km/h (2 Bft)
27.03.2016 18:40 8,1 C 8,1 C 59 % 1013,2 hPa 0,0 mm 6,6 km/h (2 Bft) W 270 0 min 0,6 C 5,4 km/h (1 Bft)
27.03.2016 18:45 8,0 C 7,9 C 60 % 1013,2 hPa 0,0 mm 7,2 km/h (2 Bft) W-SW 247 0 min 0,7 C 12,2 km/h (2 Bft)
27.03.2016 18:50 7,9 C 7,8 C 60 % 1013,2 hPa 0,0 mm 7,2 km/h (2 Bft) W-SW 247 0 min 0,6 C 9,5 km/h (2 Bft)
27.03.2016 18:55 7,8 C 7,7 C 60 % 1013,2 hPa 0,0 mm 7,7 km/h (2 Bft) SW 225 0 min 0,5 C 10,7 km/h (2 Bft)
27.03.2016 19:00 7,8 C 7,7 C 60 % 1013,2 hPa 0,0 mm 7,5 km/h (2 Bft) W 270 0 min 0,5 C 5,7 km/h (1 Bft)
27.03.2016 19:05 7,6 C 7,6 C 61 % 1013,2 hPa 0,0 mm 6,6 km/h (2 Bft) SW 225 0 min 0,6 C 7,5 km/h (2 Bft)
27.03.2016 19:10 7,6 C 7,6 C 61 % 1013,3 hPa 0,0 mm 6,0 km/h (2 Bft) S 180 0 min 0,6 C 5,4 km/h (1 Bft)
27.03.2016 19:15 7,5 C 7,5 C 61 % 1013,3 hPa 0,0 mm 6,3 km/h (2 Bft) W-SW 247 0 min 0,5 C 5,1 km/h (1 Bft)
27.03.2016 19:20 7,5 C 7,4 C 61 % 1013,3 hPa 0,0 mm 6,0 km/h (2 Bft) W-SW 247 0 min 0,5 C 14,3 km/h (3 Bft)
27.03.2016 19:25 7,4 C 7,3 C 62 % 1013,3 hPa 0,0 mm 5,7 km/h (1 Bft) W 270 0 min 0,6 C 4,8 km/h (1 Bft)
27.03.2016 19:30 7,3 C 7,3 C 62 % 1013,3 hPa 0,0 mm 5,4 km/h (1 Bft) W-SW 247 0 min 0,5 C 4,5 km/h (1 Bft)
27.03.2016 19:35 7,3 C 7,3 C 63 % 1013,3 hPa 0,0 mm 5,4 km/h (1 Bft) W-SW 247 0 min 0,7 C 6,6 km/h (2 Bft)
27.03.2016 19:40 7,3 C 7,2 C 63 % 1013,3 hPa 0,0 mm 6,6 km/h (2 Bft) SW 225 0 min 0,7 C 10,1 km/h (2 Bft)
27.03.2016 19:45 7,3 C 7,1 C 63 % 1013,3 hPa 0,0 mm 8,6 km/h (2 Bft) W-SW 247 0 min 0,7 C 11,6 km/h (2 Bft)
27.03.2016 19:50 7,3 C 7,1 C 63 % 1013,4 hPa 0,0 mm 8,0 km/h (2 Bft) SW 225 0 min 0,7 C 5,7 km/h (1 Bft)
27.03.2016 19:55 7,2 C 7,1 C 63 % 1013,4 hPa 0,0 mm 6,6 km/h (2 Bft) W-SW 247 0 min 0,6 C 3,3 km/h (1 Bft)
27.03.2016 20:00 7,2 C 7,1 C 64 % 1013,4 hPa 0,0 mm 6,0 km/h (2 Bft) S-SW 202 0 min 0,9 C 10,7 km/h (2 Bft)
27.03.2016 20:05 7,1 C 7,1 C 65 % 1013,4 hPa 0,0 mm 6,0 km/h (2 Bft) SW 225 0 min 1,0 C 12,5 km/h (3 Bft)
27.03.2016 20:10 7,1 C 7,0 C 65 % 1013,5 hPa 0,0 mm 6,9 km/h (2 Bft) W-SW 247 0 min 1,0 C 5,1 km/h (1 Bft)
27.03.2016 20:15 7,0 C 6,9 C 65 % 1013,5 hPa 0,0 mm 7,2 km/h (2 Bft) S-SW 202 0 min 0,9 C 8,9 km/h (2 Bft)
27.03.2016 20:20 7,0 C 6,9 C 65 % 1013,5 hPa 0,0 mm 7,2 km/h (2 Bft) SW 225 0 min 0,9 C 8,6 km/h (2 Bft)
27.03.2016 20:22 7,0 C 6,9 C 65 % 1013,5 hPa 0,0 mm 7,2 km/h (2 Bft) SW 225 0 min 0,9 C 8,6 km/h (2 Bft)
27.03.2016 20:25 7,0 C 6,9 C 65 % 1013,5 hPa 0,0 mm 7,2 km/h (2 Bft) W-SW 247 0 min 0,9 C 6,0 km/h (2 Bft)
27.03.2016 20:30 6,9 C 6,9 C 66 % 1013,6 hPa 0,0 mm 6,9 km/h (2 Bft) W-SW 247 0 min 1,0 C 9,5 km/h (2 Bft)
27.03.2016 20:35 7,0 C 6,9 C 66 % 1013,6 hPa 0,0 mm 7,5 km/h (2 Bft) SW 225 0 min 1,1 C 9,5 km/h (2 Bft)
27.03.2016 20:40 6,9 C 6,8 C 66 % 1013,6 hPa 0,0 mm 7,7 km/h (2 Bft) W-SW 247 0 min 1,0 C 12,5 km/h (3 Bft)
27.03.2016 20:45 6,9 C 6,8 C 66 % 1013,6 hPa 0,0 mm 7,2 km/h (2 Bft) SW 225 0 min 1,0 C 6,3 km/h (2 Bft)
27.03.2016 20:50 6,9 C 6,9 C 66 % 1013,8 hPa 0,0 mm 6,9 km/h (2 Bft) SW 225 0 min 1,0 C 8,3 km/h (2 Bft)
27.03.2016 20:55 6,9 C 6,9 C 66 % 1013,8 hPa 0,0 mm 5,7 km/h (1 Bft) W-SW 247 0 min 1,0 C 9,5 km/h (2 Bft)
27.03.2016 21:00 6,9 C 6,8 C 67 % 1013,8 hPa 0,0 mm 6,0 km/h (2 Bft) W 270 0 min 1,2 C 14,3 km/h (3 Bft)
27.03.2016 21:05 6,6 C 6,1 C 69 % 1013,8 hPa 0,0 mm 12,2 km/h (2 Bft) W 270 0 min 1,3 C 16,4 km/h (3 Bft)
27.03.2016 21:10 6,4 C 6,0 C 70 % 1014,2 hPa 0,0 mm 14,3 km/h (3 Bft) W 270 0 min 1,3 C 26,2 km/h (4 Bft)
27.03.2016 21:15 6,1 C 5,3 C 73 % 1014,2 hPa 0,0 mm 13,7 km/h (3 Bft) W 270 0 min 1,6 C 8,3 km/h (2 Bft)
27.03.2016 21:20 5,9 C 5,1 C 75 % 1014,2 hPa 0,0 mm 13,4 km/h (3 Bft) W-SW 247 0 min 1,8 C 10,4 km/h (2 Bft)
27.03.2016 21:25 5,5 C 4,8 C 76 % 1014,2 hPa 0,0 mm 10,7 km/h (2 Bft) W-SW 247 0 min 1,6 C 15,2 km/h (3 Bft)
27.03.2016 21:30 5,4 C 4,8 C 77 % 1014,6 hPa 0,0 mm 9,2 km/h (2 Bft) SW 225 0 min 1,7 C 9,2 km/h (2 Bft)
27.03.2016 21:35 5,2 C 4,7 C 78 % 1014,6 hPa 0,0 mm 7,5 km/h (2 Bft) SW 225 0 min 1,7 C 12,8 km/h (3 Bft)
27.03.2016 21:40 5,0 C 4,5 C 79 % 1014,6 hPa 0,0 mm 8,0 km/h (2 Bft) W-SW 247 0 min 1,7 C 9,5 km/h (2 Bft)
27.03.2016 21:45 4,8 C 4,3 C 79 % 1014,6 hPa 0,7 mm 8,0 km/h (2 Bft) W-SW 247 0 min 1,5 C 8,3 km/h (2 Bft)
27.03.2016 21:50 4,8 C 4,2 C 80 % 1014,7 hPa 0,0 mm 8,6 km/h (2 Bft) W 270 0 min 1,6 C 11,9 km/h (2 Bft)
27.03.2016 21:55 4,6 C 4,0 C 81 % 1014,7 hPa 0,0 mm 9,2 km/h (2 Bft) NW 315 0 min 1,6 C 10,1 km/h (2 Bft)
27.03.2016 22:00 4,5 C 3,9 C 81 % 1014,7 hPa 0,0 mm 9,2 km/h (2 Bft) W 270 0 min 1,5 C 7,7 km/h (2 Bft)
27.03.2016 22:05 4,3 C 3,8 C 81 % 1014,7 hPa 0,7 mm 8,0 km/h (2 Bft) N-NW 337 0 min 1,3 C 8,3 km/h (2 Bft)
27.03.2016 22:10 4,3 C 3,9 C 81 % 1014,8 hPa 0,0 mm 6,9 km/h (2 Bft) W 270 0 min 1,3 C 6,3 km/h (2 Bft)
27.03.2016 22:15 4,2 C 3,9 C 82 % 1014,8 hPa 0,0 mm 6,3 km/h (2 Bft) S 180 0 min 1,4 C 7,5 km/h (2 Bft)
27.03.2016 22:20 4,2 C 3,9 C 82 % 1014,8 hPa 0,0 mm 6,3 km/h (2 Bft) W-SW 247 0 min 1,4 C 7,5 km/h (2 Bft)
27.03.2016 22:25 4,1 C 3,6 C 82 % 1014,8 hPa 0,0 mm 8,0 km/h (2 Bft) S 180 0 min 1,3 C 14,0 km/h (3 Bft)
27.03.2016 22:30 4,1 C 3,5 C 83 % 1014,6 hPa 0,0 mm 8,9 km/h (2 Bft) W-SW 247 0 min 1,5 C 7,7 km/h (2 Bft)
27.03.2016 22:35 4,0 C 3,5 C 83 % 1014,6 hPa 0,0 mm 7,5 km/h (2 Bft) W 270 0 min 1,4 C 3,3 km/h (1 Bft)
27.03.2016 22:40 3,9 C 3,6 C 83 % 1014,6 hPa 0,0 mm 5,4 km/h (1 Bft) W 270 0 min 1,3 C 7,7 km/h (2 Bft)
27.03.2016 22:45 3,9 C 3,5 C 83 % 1014,6 hPa 0,0 mm 6,6 km/h (2 Bft) SW 225 0 min 1,3 C 8,9 km/h (2 Bft)
27.03.2016 22:50 3,9 C 3,4 C 83 % 1014,4 hPa 0,0 mm 7,7 km/h (2 Bft) NW 315 0 min 1,3 C 8,0 km/h (2 Bft)
27.03.2016 22:55 3,9 C 3,6 C 83 % 1014,4 hPa 0,0 mm 5,1 km/h (1 Bft) SW 225 0 min 1,3 C 6,9 km/h (2 Bft)
27.03.2016 23:00 3,8 C 3,6 C 83 % 1014,4 hPa 0,0 mm 4,5 km/h (1 Bft) SW 225 0 min 1,2 C 3,0 km/h (1 Bft)
27.03.2016 23:05 3,8 C 3,5 C 83 % 1014,4 hPa 0,0 mm 5,4 km/h (1 Bft) S-SO 157 0 min 1,2 C 6,6 km/h (2 Bft)
27.03.2016 23:10 3,8 C 3,4 C 83 % 1014,4 hPa 0,0 mm 6,0 km/h (2 Bft) S-SW 202 0 min 1,2 C 6,0 km/h (2 Bft)
27.03.2016 23:15 3,8 C 3,3 C 84 % 1014,4 hPa 0,7 mm 7,7 km/h (2 Bft) W-SW 247 0 min 1,4 C 9,8 km/h (2 Bft)
27.03.2016 23:20 3,7 C 3,2 C 84 % 1014,4 hPa 0,0 mm 7,7 km/h (2 Bft) W-SW 247 0 min 1,3 C 9,5 km/h (2 Bft)
27.03.2016 23:23 3,7 C 3,2 C 84 % 1014,4 hPa 0,0 mm 7,7 km/h (2 Bft) W-SW 247 0 min 1,3 C 9,5 km/h (2 Bft)
27.03.2016 23:25 3,7 C 3,4 C 84 % 1014,4 hPa 0,0 mm 4,8 km/h (1 Bft) W 270 0 min 1,3 C 0,0 km/h (0 Bft)
27.03.2016 23:30 3,5 C 3,3 C 84 % 1014,3 hPa 0,0 mm 3,6 km/h (1 Bft) S 180 0 min 1,1 C 7,5 km/h (2 Bft)
27.03.2016 23:35 3,5 C 3,3 C 84 % 1014,3 hPa 0,0 mm 1,2 km/h (1 Bft) O-SO 112 0 min 1,1 C 0,0 km/h (0 Bft)
27.03.2016 23:40 3,4 C 3,2 C 84 % 1014,3 hPa 0,0 mm 0,3 km/h (0 Bft) SW 225 0 min 1,0 C 0,0 km/h (0 Bft)
27.03.2016 23:45 3,4 C 3,2 C 85 % 1014,3 hPa 0,0 mm 0,0 km/h (0 Bft) O 90 0 min 1,1 C 0,0 km/h (0 Bft)
27.03.2016 23:50 3,3 C 3,1 C 86 % 1014,2 hPa 0,0 mm 0,0 km/h (0 Bft) O 90 0 min 1,2 C 0,0 km/h (0 Bft)
27.03.2016 23:55 3,3 C 3,1 C 86 % 1014,2 hPa 0,0 mm 0,0 km/h (0 Bft) O-SO 112 0 min 1,2 C 0,0 km/h (0 Bft)
_ Min-Zeit 04:10 04:35 11:15 09:05 - 23:55 - - - 04:10 23:55
Minimum _ -1,4 C -1,8 C 42 % 1010,5 hPa - 0,0 km/h (0 Bft) - - - -3,3 C 0,0 km/h (0 Bft)
_ Max-Zeit 11:05 11:05 05:25 13:05 23:15 11:55 - - 14:45 14:10 11:55
Maximum _ 14,6 C 19,3 C 88 % 1015,1 hPa 0,7 mm 28,9 km/h
W-NW (5 Bft)
- - 5 min 4,2 C 69,1 km/h
W-NW (8 Bft)
Durchschnitt _ 6,0 C 7,0 C 69 % 1013,2 hPa #2,1 mm 6,9 km/h (2 Bft) W-SW - #3:20 h 0,4 C 9,0 km/h (2 Bft)